Location: Ago
(8.4667°N, 4.4833°E)
Time: 22:29:06
(UTC+00:00)

Exosat Rocket - Pass Details

Date: 18 September 2020
Orbit: 761 x 2514 km, 72.3° (Epoch: 20 October)

Event Time Altitude Azimuth Distance (km) Brightness Sun altitude
Rises 18:43:23 0° 189° (S) 4,884 7.7 -16.4°
Reaches altitude 10° 18:46:54 10° 186° (S) 3,630 7.0 -17.3°
Maximum altitude 18:55:13 68° 105° (ESE) 1,199 4.2 -19.4°
Drops below altitude 10° 19:01:05 10° 23° (NNE) 2,602 6.1 -20.8°
Sets 19:03:15 0° 21° (NNE) 3,424 6.7 -21.3°
